This is the latest recevied weather packets stored in our database for station/object KQ4UPF. If no packets are shown the sender has not sent any weather packets the latest 10 day(s).
| Time | Temp. | Humidity | Pressure | Rain* | Wind** | Luminosity | Snow |
|---|---|---|---|---|---|---|---|
| 1778020022 | 23.33° C | 62% | 1012.8 hPa | 0 mm | - | 60 W/m² | - |
| 1778019718 | 23.89° C | 61% | 1012.8 hPa | 0 mm | - | 70 W/m² | - |
| 1778019416 | 23.89° C | 57% | 1012.7 hPa | 0 mm | - | 99 W/m² | - |
| 1778019112 | 23.89° C | 58% | 1012.8 hPa | 0 mm | - | 139 W/m² | - |
| 1778018809 | 23.89° C | 57% | 1012.6 hPa | 0 mm | - | 186 W/m² | - |
| 1778018507 | 23.89° C | 56% | 1012.6 hPa | 0 mm | - | 224 W/m² | - |
| 1778018204 | 23.89° C | 56% | 1012.6 hPa | 0 mm | - | 234 W/m² | - |
| 1778017902 | 23.89° C | 55% | 1012.6 hPa | 0 mm | - | 184 W/m² | - |
| 1778017600 | 24.44° C | 57% | 1012.6 hPa | 0 mm | - | 295 W/m² | - |
| 1778017297 | 24.44° C | 51% | 1012.5 hPa | 0 mm | - | 256 W/m² | - |
| 1778016994 | 24.44° C | 51% | 1012.6 hPa | 0 mm | - | 391 W/m² | - |
| 1778016691 | 24.44° C | 52% | 1012.7 hPa | 0 mm | - | 446 W/m² | - |
| 1778016387 | 25° C | 55% | 1012.8 hPa | 0 mm | - | 220 W/m² | - |
| 1778016085 | 25.56° C | 52% | 1012.3 hPa | 0 mm | - | 274 W/m² | - |
| 1778015781 | 25.56° C | 47% | 1012.4 hPa | 0 mm | - | 376 W/m² | - |
| 1778015479 | 25° C | 53% | 1012.4 hPa | 0 mm | - | 512 W/m² | - |
| 1778015175 | 24.44° C | 49% | 1012.4 hPa | 0 mm | - | 353 W/m² | - |
| 1778014872 | 24.44° C | 54% | 1012.5 hPa | 0 mm | - | 293 W/m² | - |
| 1778014570 | 25° C | 48% | 1012.5 hPa | 0 mm | - | 331 W/m² | - |
| 1778014267 | 25.56° C | 46% | 1012.4 hPa | 0 mm | - | 441 W/m² | - |
| 1778013964 | 25° C | 52% | 1012.4 hPa | 0 mm | - | 430 W/m² | - |
| 1778013661 | 24.44° C | 53% | 1012.5 hPa | 0 mm | - | 785 W/m² | - |
| 1778013358 | 25° C | 52% | 1012.7 hPa | 0 mm | - | 229 W/m² | - |
| 1778013055 | 25.56° C | 47% | 1012.5 hPa | 0 mm | - | 194 W/m² | - |
| 1778012751 | 25.56° C | 49% | 1012.3 hPa | 0 mm | - | 346 W/m² | - |
* Rain latest hour (hover to see other rain measurements)
** Current wind speed in m/s (hover to see current wind gust speed)